カタログに戻る

STARLINK-38199

運用中通信SSO
NORAD 100218·PAYLOAD·🇺🇸 United States

打ち上げ Aug 4, 2026 から Vandenberg Space Force Base

Loading…

次のパス (今後24時間)

TLE

最新Source: Space-Track

元期: Sep 14, 2026, 22:59 UTC

1 A0218U 26177F   26257.95802338  .00039577  00000-0  72494-3 0  9994
2 A0218  97.2834 308.7169 0001493  84.3132 275.8289 15.49218838  6509

AllMySatでSTARLINK-38199をリアルタイム追跡

Download on the App Store